owner,sensor,date,latitude,longitude,vertical_datum,wind_speed,wind_to_direction,wind_speed_of_gust,qcFlag 
LUMCON,ioos:station:LUMCON:101:1,2019-04-01T00:00:00Z,29.2533,-90.6633,1.0,6.6,339.0,7.2,'1111122,1111122,1111122' 
LUMCON,ioos:station:LUMCON:101:1,2019-04-01T00:15:00Z,29.2533,-90.6633,1.0,5.9,344.0,6.5,'1111122,1111122,1111122' 
LUMCON,ioos:station:LUMCON:101:1,2019-04-01T00:30:00Z,29.2533,-90.6633,1.0,7.0,338.0,7.2,'1111122,1111122,1111122' 
LUMCON,ioos:station:LUMCON:101:1,2019-04-01T00:45:00Z,29.2533,-90.6633,1.0,5.2,338.0,5.6,'1111122,1111122,1111122' 
LUMCON,ioos:station:LUMCON:101:1,2019-04-01T01:00:00Z,29.2533,-90.6633,1.0,4.3,325.0,4.7,'1111122,1111122,1111122' 
LUMCON,ioos:station:LUMCON:101:1,2019-04-01T01:15:00Z,29.2533,-90.6633,1.0,6.3,337.0,7.0,'1111122,1111122,1111122' 
LUMCON,ioos:station:LUMCON:101:1,2019-04-01T01:30:00Z,29.2533,-90.6633,1.0,5.0,337.0,5.7,'1111122,1111122,1111122' 
LUMCON,ioos:station:LUMCON:101:1,2019-04-01T01:45:00Z,29.2533,-90.6633,1.0,6.2,344.0,7.6,'1111122,1111122,1111122' 
LUMCON,ioos:station:LUMCON:101:1,2019-04-01T02:00:00Z,29.2533,-90.6633,1.0,8.8,341.0,9.6,'1111122,1111122,1111122' 
LUMCON,ioos:station:LUMCON:101:1,2019-04-01T02:15:00Z,29.2533,-90.6633,1.0,7.8,336.0,8.0,'1111122,1111122,1111122' 
LUMCON,ioos:station:LUMCON:101:1,2019-04-01T02:30:00Z,29.2533,-90.6633,1.0,5.6,333.0,6.3,'1111122,1111122,1111122' 
LUMCON,ioos:station:LUMCON:101:1,2019-04-01T02:45:00Z,29.2533,-90.6633,1.0,5.5,341.0,6.3,'1111122,1111122,1111122' 
LUMCON,ioos:station:LUMCON:101:1,2019-04-01T03:00:00Z,29.2533,-90.6633,1.0,7.6,342.0,7.9,'1111122,1111122,1111122' 
LUMCON,ioos:station:LUMCON:101:1,2019-04-01T03:15:00Z,29.2533,-90.6633,1.0,7.0,346.0,7.6,'1111122,1111122,1111122' 
LUMCON,ioos:station:LUMCON:101:1,2019-04-01T03:30:00Z,29.2533,-90.6633,1.0,7.8,342.0,8.0,'1111122,1111122,1111122' 
LUMCON,ioos:station:LUMCON:101:1,2019-04-01T03:45:00Z,29.2533,-90.6633,1.0,7.2,346.0,7.5,'1111122,1111122,1111122' 
LUMCON,ioos:station:LUMCON:101:1,2019-04-01T04:00:00Z,29.2533,-90.6633,1.0,5.6,341.0,5.8,'1111122,1111122,1111122' 
LUMCON,ioos:station:LUMCON:101:1,2019-04-01T04:15:00Z,29.2533,-90.6633,1.0,5.5,341.0,6.0,'1111122,1111122,1111122' 
LUMCON,ioos:station:LUMCON:101:1,2019-04-01T04:30:00Z,29.2533,-90.6633,1.0,6.2,357.0,6.6,'1111122,1111122,1111122' 
LUMCON,ioos:station:LUMCON:101:1,2019-04-01T04:45:00Z,29.2533,-90.6633,1.0,9.0,352.0,9.3,'1111122,1111122,1111122' 
LUMCON,ioos:station:LUMCON:101:1,2019-04-01T05:00:00Z,29.2533,-90.6633,1.0,6.5,354.0,7.0,'1111122,1111122,1111122' 
LUMCON,ioos:station:LUMCON:101:1,2019-04-01T05:15:00Z,29.2533,-90.6633,1.0,5.9,345.0,6.2,'1111122,1111122,1111122' 
LUMCON,ioos:station:LUMCON:101:1,2019-04-01T05:30:00Z,29.2533,-90.6633,1.0,5.6,21.0,6.3,'1111122,1111122,1111122' 
LUMCON,ioos:station:LUMCON:101:1,2019-04-01T05:45:00Z,29.2533,-90.6633,1.0,6.2,16.0,7.3,'1111122,1111122,1111122' 
LUMCON,ioos:station:LUMCON:101:1,2019-04-01T06:00:00Z,29.2533,-90.6633,1.0,4.8,7.0,5.5,'1111122,1111122,1111122' 
LUMCON,ioos:station:LUMCON:101:1,2019-04-01T06:15:00Z,29.2533,-90.6633,1.0,7.9,9.0,8.8,'1111122,1111122,1111122' 
LUMCON,ioos:station:LUMCON:101:1,2019-04-01T06:30:00Z,29.2533,-90.6633,1.0,6.0,1.0,6.5,'1111122,1111122,1111122' 
LUMCON,ioos:station:LUMCON:101:1,2019-04-01T06:45:00Z,29.2533,-90.6633,1.0,10.2,24.0,10.8,'1111122,1111122,1111122' 
LUMCON,ioos:station:LUMCON:101:1,2019-04-01T07:00:00Z,29.2533,-90.6633,1.0,6.6,22.0,6.9,'1111122,1111122,1111122' 
LUMCON,ioos:station:LUMCON:101:1,2019-04-01T07:15:00Z,29.2533,-90.6633,1.0,9.5,15.0,10.5,'1111122,1111122,1111122' 
LUMCON,ioos:station:LUMCON:101:1,2019-04-01T07:30:00Z,29.2533,-90.6633,1.0,5.7,11.0,6.0,'1111122,1111122,1111122' 
LUMCON,ioos:station:LUMCON:101:1,2019-04-01T07:45:00Z,29.2533,-90.6633,1.0,5.9,0.0,6.4,'1111122,1114422,1111122' 
LUMCON,ioos:station:LUMCON:101:1,2019-04-01T08:00:00Z,29.2533,-90.6633,1.0,7.1,9.0,7.4,'1111122,1111122,1111122' 
LUMCON,ioos:station:LUMCON:101:1,2019-04-01T08:15:00Z,29.2533,-90.6633,1.0,5.9,355.0,6.1,'1111122,1111122,1111122' 
LUMCON,ioos:station:LUMCON:101:1,2019-04-01T08:30:00Z,29.2533,-90.6633,1.0,5.1,6.0,6.1,'1111122,1111122,1111122' 
LUMCON,ioos:station:LUMCON:101:1,2019-04-01T08:45:00Z,29.2533,-90.6633,1.0,6.3,0.0,7.1,'1111122,1114422,1111122' 
LUMCON,ioos:station:LUMCON:101:1,2019-04-01T09:00:00Z,29.2533,-90.6633,1.0,5.7,19.0,6.6,'1111122,1111122,1111122' 
LUMCON,ioos:station:LUMCON:101:1,2019-04-01T09:15:00Z,29.2533,-90.6633,1.0,5.2,6.0,5.6,'1111122,1111122,1111122' 
LUMCON,ioos:station:LUMCON:101:1,2019-04-01T09:30:00Z,29.2533,-90.6633,1.0,5.4,4.0,6.0,'1111122,1111122,1111122' 
LUMCON,ioos:station:LUMCON:101:1,2019-04-01T09:45:00Z,29.2533,-90.6633,1.0,5.5,7.0,6.2,'1111122,1111122,1111122' 
LUMCON,ioos:station:LUMCON:101:1,2019-04-01T10:00:00Z,29.2533,-90.6633,1.0,4.9,358.0,5.3,'1111122,1111122,1111122' 
LUMCON,ioos:station:LUMCON:101:1,2019-04-01T10:15:00Z,29.2533,-90.6633,1.0,3.6,343.0,3.7,'1111122,1111122,1111122' 
LUMCON,ioos:station:LUMCON:101:1,2019-04-01T10:30:00Z,29.2533,-90.6633,1.0,3.4,338.0,3.9,'1111122,1111122,1111122' 
LUMCON,ioos:station:LUMCON:101:1,2019-04-01T10:45:00Z,29.2533,-90.6633,1.0,4.2,343.0,4.2,'1111122,1111122,1111122' 
LUMCON,ioos:station:LUMCON:101:1,2019-04-01T11:00:00Z,29.2533,-90.6633,1.0,3.3,357.0,3.6,'1111122,1111122,1111122' 
LUMCON,ioos:station:LUMCON:101:1,2019-04-01T11:15:00Z,29.2533,-90.6633,1.0,3.7,352.0,4.1,'1111122,1111122,1111122' 
LUMCON,ioos:station:LUMCON:101:1,2019-04-01T11:30:00Z,29.2533,-90.6633,1.0,3.1,338.0,3.4,'1111122,1111122,1111122' 
LUMCON,ioos:station:LUMCON:101:1,2019-04-01T11:45:00Z,29.2533,-90.6633,1.0,3.9,337.0,4.1,'1111122,1111122,1111122' 
LUMCON,ioos:station:LUMCON:101:1,2019-04-01T12:00:00Z,29.2533,-90.6633,1.0,3.6,349.0,3.8,'1111122,1111122,1111122' 
LUMCON,ioos:station:LUMCON:101:1,2019-04-01T21:30:00Z,29.2533,-90.6633,1.0,4.7,34.0,5.2,'1111122,1111122,1111122' 
LUMCON,ioos:station:LUMCON:101:1,2019-04-01T21:45:00Z,29.2533,-90.6633,1.0,4.5,44.0,5.4,'1111122,1111122,1111122' 
LUMCON,ioos:station:LUMCON:101:1,2019-04-01T22:00:00Z,29.2533,-90.6633,1.0,5.0,70.0,5.7,'1111122,1111122,1111122' 
LUMCON,ioos:station:LUMCON:101:1,2019-04-01T22:15:00Z,29.2533,-90.6633,1.0,5.2,83.0,6.1,'1111122,1111122,1111122' 
LUMCON,ioos:station:LUMCON:101:1,2019-04-01T22:30:00Z,29.2533,-90.6633,1.0,3.7,76.0,4.1,'1111122,1111122,1111122' 
LUMCON,ioos:station:LUMCON:101:1,2019-04-01T22:45:00Z,29.2533,-90.6633,1.0,5.2,75.0,5.8,'1111122,1111122,1111122' 
LUMCON,ioos:station:LUMCON:101:1,2019-04-01T23:00:00Z,29.2533,-90.6633,1.0,2.9,56.0,3.5,'1111122,1111122,1111122' 
LUMCON,ioos:station:LUMCON:101:1,2019-04-01T23:15:00Z,29.2533,-90.6633,1.0,1.6,44.0,1.8,'1111122,1111122,1111122' 
LUMCON,ioos:station:LUMCON:101:1,2019-04-01T23:30:00Z,29.2533,-90.6633,1.0,2.1,23.0,2.6,'1111122,1111122,1111122' 
LUMCON,ioos:station:LUMCON:101:1,2019-04-01T23:45:00Z,29.2533,-90.6633,1.0,1.0,58.0,1.1,'1111122,1111122,1111122' 
LUMCON,ioos:station:LUMCON:101:1,2019-04-02T00:00:00Z,29.2533,-90.6633,1.0,1.6,45.0,1.7,'1111122,1111122,1111122' 
LUMCON,ioos:station:LUMCON:101:1,2019-04-02T00:15:00Z,29.2533,-90.6633,1.0,1.6,20.0,1.8,'1111122,1111122,1111122' 
LUMCON,ioos:station:LUMCON:101:1,2019-04-02T00:30:00Z,29.2533,-90.6633,1.0,3.0,9.0,3.1,'1111122,1111122,1111122' 
LUMCON,ioos:station:LUMCON:101:1,2019-04-02T00:45:00Z,29.2533,-90.6633,1.0,2.5,3.0,2.6,'1111122,1111122,1111122' 
LUMCON,ioos:station:LUMCON:101:1,2019-04-02T01:00:00Z,29.2533,-90.6633,1.0,2.0,318.0,2.1,'1111122,1111122,1111122' 
LUMCON,ioos:station:LUMCON:101:1,2019-04-02T01:15:00Z,29.2533,-90.6633,1.0,3.9,10.0,4.0,'1111122,1111122,1111122' 
LUMCON,ioos:station:LUMCON:101:1,2019-04-02T01:30:00Z,29.2533,-90.6633,1.0,2.9,13.0,3.1,'1111122,1111122,1111122' 
LUMCON,ioos:station:LUMCON:101:1,2019-04-02T01:45:00Z,29.2533,-90.6633,1.0,1.7,352.0,1.8,'1111122,1111122,1111122' 
LUMCON,ioos:station:LUMCON:101:1,2019-04-02T02:00:00Z,29.2533,-90.6633,1.0,2.5,334.0,2.5,'1111122,1111122,1111122' 
LUMCON,ioos:station:LUMCON:101:1,2019-04-02T02:15:00Z,29.2533,-90.6633,1.0,0.5,302.0,0.5,'1111122,1111122,1111122' 
LUMCON,ioos:station:LUMCON:101:1,2019-04-02T02:30:00Z,29.2533,-90.6633,1.0,0.6,51.0,0.6,'1111122,1111122,1111122' 
LUMCON,ioos:station:LUMCON:101:1,2019-04-02T02:45:00Z,29.2533,-90.6633,1.0,0.6,114.0,0.6,'1111122,1111122,1111122' 
LUMCON,ioos:station:LUMCON:101:1,2019-04-02T03:00:00Z,29.2533,-90.6633,1.0,1.1,28.0,1.2,'1111122,1111122,1111122' 
LUMCON,ioos:station:LUMCON:101:1,2019-04-02T03:15:00Z,29.2533,-90.6633,1.0,0.7,23.0,0.7,'1111122,1111122,1111122' 
LUMCON,ioos:station:LUMCON:101:1,2019-04-02T03:30:00Z,29.2533,-90.6633,1.0,0.7,39.0,0.7,'1111122,1111122,1111122' 
LUMCON,ioos:station:LUMCON:101:1,2019-04-02T03:45:00Z,29.2533,-90.6633,1.0,3.1,336.0,3.2,'1111122,1111122,1111122' 
LUMCON,ioos:station:LUMCON:101:1,2019-04-02T04:00:00Z,29.2533,-90.6633,1.0,4.5,332.0,4.9,'1111122,1111122,1111122' 
LUMCON,ioos:station:LUMCON:101:1,2019-04-02T04:15:00Z,29.2533,-90.6633,1.0,5.8,338.0,6.2,'1111122,1111122,1111122' 
LUMCON,ioos:station:LUMCON:101:1,2019-04-02T04:30:00Z,29.2533,-90.6633,1.0,3.8,347.0,4.5,'1111122,1111122,1111122' 
LUMCON,ioos:station:LUMCON:101:1,2019-04-02T04:45:00Z,29.2533,-90.6633,1.0,3.8,0.0,4.3,'1111122,1114422,1111122' 
LUMCON,ioos:station:LUMCON:101:1,2019-04-02T05:00:00Z,29.2533,-90.6633,1.0,0.6,12.0,0.8,'1111122,1111122,1111122' 
LUMCON,ioos:station:LUMCON:101:1,2019-04-02T05:15:00Z,29.2533,-90.6633,1.0,1.7,71.0,1.9,'1111122,1111122,1111122' 
LUMCON,ioos:station:LUMCON:101:1,2019-04-02T05:30:00Z,29.2533,-90.6633,1.0,1.1,33.0,1.2,'1111122,1111122,1111122' 
LUMCON,ioos:station:LUMCON:101:1,2019-04-02T05:45:00Z,29.2533,-90.6633,1.0,1.9,336.0,2.0,'1111122,1111122,1111122' 
LUMCON,ioos:station:LUMCON:101:1,2019-04-02T06:00:00Z,29.2533,-90.6633,1.0,3.4,310.0,3.6,'1111122,1111122,1111122' 
LUMCON,ioos:station:LUMCON:101:1,2019-04-02T06:15:00Z,29.2533,-90.6633,1.0,6.9,303.0,7.8,'1111122,1111122,1111122' 
LUMCON,ioos:station:LUMCON:101:1,2019-04-02T06:30:00Z,29.2533,-90.6633,1.0,6.8,299.0,7.4,'1111122,1111122,1111122' 
LUMCON,ioos:station:LUMCON:101:1,2019-04-02T06:45:00Z,29.2533,-90.6633,1.0,6.2,308.0,6.6,'1111122,1111122,1111122' 
LUMCON,ioos:station:LUMCON:101:1,2019-04-02T07:00:00Z,29.2533,-90.6633,1.0,5.3,304.0,6.3,'1111122,1111122,1111122' 
LUMCON,ioos:station:LUMCON:101:1,2019-04-02T07:15:00Z,29.2533,-90.6633,1.0,6.1,307.0,6.4,'1111122,1111122,1111122' 
LUMCON,ioos:station:LUMCON:101:1,2019-04-02T07:30:00Z,29.2533,-90.6633,1.0,5.5,303.0,6.2,'1111122,1111122,1111122' 
LUMCON,ioos:station:LUMCON:101:1,2019-04-02T07:45:00Z,29.2533,-90.6633,1.0,6.2,313.0,6.7,'1111122,1111122,1111122' 
LUMCON,ioos:station:LUMCON:101:1,2019-04-02T08:00:00Z,29.2533,-90.6633,1.0,6.9,316.0,7.3,'1111122,1111122,1111122' 
LUMCON,ioos:station:LUMCON:101:1,2019-04-02T08:15:00Z,29.2533,-90.6633,1.0,7.4,323.0,7.7,'1111122,1111122,1111122' 
LUMCON,ioos:station:LUMCON:101:1,2019-04-02T08:30:00Z,29.2533,-90.6633,1.0,6.4,323.0,6.6,'1111122,1111122,1111122' 
LUMCON,ioos:station:LUMCON:101:1,2019-04-02T08:45:00Z,29.2533,-90.6633,1.0,5.1,325.0,5.5,'1111122,1111122,1111122' 
LUMCON,ioos:station:LUMCON:101:1,2019-04-02T09:00:00Z,29.2533,-90.6633,1.0,5.4,333.0,5.8,'1111122,1111122,1111122' 
LUMCON,ioos:station:LUMCON:101:1,2019-04-02T09:15:00Z,29.2533,-90.6633,1.0,7.0,329.0,7.3,'1111122,1111122,1111122' 
LUMCON,ioos:station:LUMCON:101:1,2019-04-02T09:30:00Z,29.2533,-90.6633,1.0,5.0,336.0,5.5,'1111122,1111122,1111122' 
LUMCON,ioos:station:LUMCON:101:1,2019-04-02T09:45:00Z,29.2533,-90.6633,1.0,6.7,335.0,7.0,'1111122,1111122,1111122' 
LUMCON,ioos:station:LUMCON:101:1,2019-04-02T10:00:00Z,29.2533,-90.6633,1.0,5.2,327.0,5.8,'1111122,1111122,1111122' 
LUMCON,ioos:station:LUMCON:101:1,2019-04-02T10:15:00Z,29.2533,-90.6633,1.0,6.3,334.0,6.6,'1111122,1111122,1111122' 
LUMCON,ioos:station:LUMCON:101:1,2019-04-02T10:30:00Z,29.2533,-90.6633,1.0,6.4,333.0,6.6,'1111122,1111122,1111122' 
LUMCON,ioos:station:LUMCON:101:1,2019-04-02T10:45:00Z,29.2533,-90.6633,1.0,3.7,337.0,3.9,'1111122,1111122,1111122' 
LUMCON,ioos:station:LUMCON:101:1,2019-04-02T11:00:00Z,29.2533,-90.6633,1.0,4.5,330.0,4.8,'1111122,1111122,1111122' 
LUMCON,ioos:station:LUMCON:101:1,2019-04-02T11:15:00Z,29.2533,-90.6633,1.0,3.4,338.0,4.1,'1111122,1111122,1111122' 
LUMCON,ioos:station:LUMCON:101:1,2019-04-02T11:30:00Z,29.2533,-90.6633,1.0,4.3,341.0,4.9,'1111122,1111122,1111122' 
LUMCON,ioos:station:LUMCON:101:1,2019-04-02T11:45:00Z,29.2533,-90.6633,1.0,4.1,345.0,4.3,'1111122,1111122,1111122' 
LUMCON,ioos:station:LUMCON:101:1,2019-04-02T12:00:00Z,29.2533,-90.6633,1.0,3.5,340.0,3.6,'1111122,1111122,1111122' 
LUMCON,ioos:station:LUMCON:101:1,2019-04-02T12:15:00Z,29.2533,-90.6633,1.0,4.9,342.0,5.4,'1111122,1111122,1111122' 
LUMCON,ioos:station:LUMCON:101:1,2019-04-02T12:30:00Z,29.2533,-90.6633,1.0,4.9,344.0,5.1,'1111122,1111122,1111122' 
LUMCON,ioos:station:LUMCON:101:1,2019-04-02T12:45:00Z,29.2533,-90.6633,1.0,5.2,334.0,5.7,'1111122,1111122,1111122' 
LUMCON,ioos:station:LUMCON:101:1,2019-04-02T13:00:00Z,29.2533,-90.6633,1.0,5.2,333.0,5.8,'1111122,1111122,1111122' 
LUMCON,ioos:station:LUMCON:101:1,2019-04-02T13:15:00Z,29.2533,-90.6633,1.0,4.7,345.0,5.5,'1111122,1111122,1111122' 
LUMCON,ioos:station:LUMCON:101:1,2019-04-02T13:30:00Z,29.2533,-90.6633,1.0,5.1,326.0,5.4,'1111122,1111122,1111122' 
LUMCON,ioos:station:LUMCON:101:1,2019-04-02T13:45:00Z,29.2533,-90.6633,1.0,5.2,330.0,5.5,'1111122,1111122,1111122' 
LUMCON,ioos:station:LUMCON:101:1,2019-04-02T14:00:00Z,29.2533,-90.6633,1.0,5.2,327.0,5.3,'1111122,1111122,1111122' 
LUMCON,ioos:station:LUMCON:101:1,2019-04-02T14:15:00Z,29.2533,-90.6633,1.0,5.2,340.0,5.4,'1111122,1111122,1111122' 
LUMCON,ioos:station:LUMCON:101:1,2019-04-02T14:30:00Z,29.2533,-90.6633,1.0,3.9,331.0,4.5,'1111122,1111122,1111122' 
LUMCON,ioos:station:LUMCON:101:1,2019-04-02T14:45:00Z,29.2533,-90.6633,1.0,3.5,348.0,3.8,'1111122,1111122,1111122' 
LUMCON,ioos:station:LUMCON:101:1,2019-04-02T15:00:00Z,29.2533,-90.6633,1.0,4.3,323.0,4.5,'1111122,1111122,1111122' 
LUMCON,ioos:station:LUMCON:101:1,2019-04-02T15:15:00Z,29.2533,-90.6633,1.0,6.6,310.0,7.2,'1111122,1111122,1111122' 
LUMCON,ioos:station:LUMCON:101:1,2019-04-02T15:30:00Z,29.2533,-90.6633,1.0,4.2,310.0,5.0,'1111122,1111122,1111122' 
LUMCON,ioos:station:LUMCON:101:1,2019-04-02T15:45:00Z,29.2533,-90.6633,1.0,4.9,301.0,5.1,'1111122,1111122,1111122' 
LUMCON,ioos:station:LUMCON:101:1,2019-04-02T16:00:00Z,29.2533,-90.6633,1.0,4.1,318.0,4.4,'1111122,1111122,1111122' 
LUMCON,ioos:station:LUMCON:101:1,2019-04-02T16:15:00Z,29.2533,-90.6633,1.0,4.1,307.0,4.1,'1111122,1111122,1111122' 
LUMCON,ioos:station:LUMCON:101:1,2019-04-02T16:30:00Z,29.2533,-90.6633,1.0,5.5,322.0,5.6,'1111122,1111122,1111122' 
LUMCON,ioos:station:LUMCON:101:1,2019-04-02T16:45:00Z,29.2533,-90.6633,1.0,5.0,314.0,5.3,'1111122,1111122,1111122' 
LUMCON,ioos:station:LUMCON:101:1,2019-04-02T17:00:00Z,29.2533,-90.6633,1.0,6.3,305.0,6.7,'1111122,1111122,1111122' 
LUMCON,ioos:station:LUMCON:101:1,2019-04-02T17:15:00Z,29.2533,-90.6633,1.0,3.4,325.0,3.6,'1111122,1111122,1111122' 
LUMCON,ioos:station:LUMCON:101:1,2019-04-02T17:30:00Z,29.2533,-90.6633,1.0,3.4,287.0,3.8,'1111122,1111122,1111122' 
LUMCON,ioos:station:LUMCON:101:1,2019-04-02T17:45:00Z,29.2533,-90.6633,1.0,2.8,343.0,2.9,'1111122,1111122,1111122' 
LUMCON,ioos:station:LUMCON:101:1,2019-04-02T18:00:00Z,29.2533,-90.6633,1.0,3.3,305.0,3.9,'1111122,1111122,1111122' 
LUMCON,ioos:station:LUMCON:101:1,2019-04-02T18:15:00Z,29.2533,-90.6633,1.0,3.8,320.0,4.2,'1111122,1111122,1111122' 
LUMCON,ioos:station:LUMCON:101:1,2019-04-02T18:30:00Z,29.2533,-90.6633,1.0,0.6,296.0,0.9,'1111122,1111122,1111122' 
LUMCON,ioos:station:LUMCON:101:1,2019-04-02T18:45:00Z,29.2533,-90.6633,1.0,2.7,318.0,2.9,'1111122,1111122,1111122' 
LUMCON,ioos:station:LUMCON:101:1,2019-04-02T19:00:00Z,29.2533,-90.6633,1.0,0.6,0.0,0.8,'1111122,1114422,1111122' 
LUMCON,ioos:station:LUMCON:101:1,2019-04-02T19:15:00Z,29.2533,-90.6633,1.0,1.5,281.0,1.6,'1111122,1111122,1111122' 
LUMCON,ioos:station:LUMCON:101:1,2019-04-02T19:30:00Z,29.2533,-90.6633,1.0,2.0,105.0,2.2,'1111122,1111122,1111122' 
LUMCON,ioos:station:LUMCON:101:1,2019-04-02T19:45:00Z,29.2533,-90.6633,1.0,3.7,97.0,4.1,'1111122,1111122,1111122' 
LUMCON,ioos:station:LUMCON:101:1,2019-04-02T20:00:00Z,29.2533,-90.6633,1.0,3.7,108.0,4.1,'1111122,1111122,1111122' 
LUMCON,ioos:station:LUMCON:101:1,2019-04-02T20:15:00Z,29.2533,-90.6633,1.0,4.1,103.0,4.2,'1111122,1111122,1111122' 
LUMCON,ioos:station:LUMCON:101:1,2019-04-02T20:30:00Z,29.2533,-90.6633,1.0,3.3,111.0,3.5,'1111122,1111122,1111122' 
LUMCON,ioos:station:LUMCON:101:1,2019-04-02T20:45:00Z,29.2533,-90.6633,1.0,3.7,140.0,4.1,'1111122,1111122,1111122' 
LUMCON,ioos:station:LUMCON:101:1,2019-04-02T21:00:00Z,29.2533,-90.6633,1.0,4.2,135.0,4.5,'1111122,1111122,1111122' 
LUMCON,ioos:station:LUMCON:101:1,2019-04-02T21:15:00Z,29.2533,-90.6633,1.0,3.1,150.0,3.2,'1111122,1111122,1111122' 
LUMCON,ioos:station:LUMCON:101:1,2019-04-02T21:30:00Z,29.2533,-90.6633,1.0,2.4,105.0,2.7,'1111122,1111122,1111122' 
LUMCON,ioos:station:LUMCON:101:1,2019-04-02T21:45:00Z,29.2533,-90.6633,1.0,3.4,178.0,3.7,'1111122,1111122,1111122' 
LUMCON,ioos:station:LUMCON:101:1,2019-04-02T22:00:00Z,29.2533,-90.6633,1.0,2.3,151.0,2.4,'1111122,1111122,1111122' 
LUMCON,ioos:station:LUMCON:101:1,2019-04-02T22:15:00Z,29.2533,-90.6633,1.0,3.4,106.0,3.7,'1111122,1111122,1111122' 
LUMCON,ioos:station:LUMCON:101:1,2019-04-02T22:30:00Z,29.2533,-90.6633,1.0,2.6,156.0,2.8,'1111122,1111122,1111122' 
LUMCON,ioos:station:LUMCON:101:1,2019-04-02T22:45:00Z,29.2533,-90.6633,1.0,3.6,108.0,3.9,'1111122,1111122,1111122' 
LUMCON,ioos:station:LUMCON:101:1,2019-04-02T23:00:00Z,29.2533,-90.6633,1.0,2.6,111.0,2.9,'1111122,1111122,1111122' 
LUMCON,ioos:station:LUMCON:101:1,2019-04-02T23:15:00Z,29.2533,-90.6633,1.0,3.2,133.0,3.4,'1111122,1111122,1111122' 
LUMCON,ioos:station:LUMCON:101:1,2019-04-02T23:30:00Z,29.2533,-90.6633,1.0,2.1,158.0,2.3,'1111122,1111122,1111122' 
LUMCON,ioos:station:LUMCON:101:1,2019-04-02T23:45:00Z,29.2533,-90.6633,1.0,1.5,114.0,1.8,'1111122,1111122,1111122' 
LUMCON,ioos:station:LUMCON:101:1,2019-04-03T00:00:00Z,29.2533,-90.6633,1.0,1.8,149.0,2.0,'1111122,1111122,1111122' 
LUMCON,ioos:station:LUMCON:101:1,2019-04-03T00:15:00Z,29.2533,-90.6633,1.0,2.2,149.0,2.3,'1111122,1111122,1111122' 
LUMCON,ioos:station:LUMCON:101:1,2019-04-03T00:30:00Z,29.2533,-90.6633,1.0,1.7,135.0,1.8,'1111122,1111122,1111122' 
LUMCON,ioos:station:LUMCON:101:1,2019-04-03T00:45:00Z,29.2533,-90.6633,1.0,1.8,141.0,1.9,'1111122,1111122,1111122' 
LUMCON,ioos:station:LUMCON:101:1,2019-04-03T01:00:00Z,29.2533,-90.6633,1.0,1.3,149.0,1.4,'1111122,1111122,1111122' 
LUMCON,ioos:station:LUMCON:101:1,2019-04-03T01:15:00Z,29.2533,-90.6633,1.0,1.5,166.0,1.6,'1111122,1111122,1111122' 
LUMCON,ioos:station:LUMCON:101:1,2019-04-03T01:30:00Z,29.2533,-90.6633,1.0,1.3,154.0,1.5,'1111122,1111122,1111122' 
LUMCON,ioos:station:LUMCON:101:1,2019-04-03T01:45:00Z,29.2533,-90.6633,1.0,1.2,151.0,1.3,'1111122,1111122,1111122' 
LUMCON,ioos:station:LUMCON:101:1,2019-04-03T02:00:00Z,29.2533,-90.6633,1.0,1.6,127.0,1.7,'1111122,1111122,1111122' 
LUMCON,ioos:station:LUMCON:101:1,2019-04-03T02:15:00Z,29.2533,-90.6633,1.0,1.1,132.0,1.2,'1111122,1111122,1111122' 
LUMCON,ioos:station:LUMCON:101:1,2019-04-03T02:30:00Z,29.2533,-90.6633,1.0,1.3,160.0,1.3,'1111122,1111122,1111122' 
LUMCON,ioos:station:LUMCON:101:1,2019-04-03T02:45:00Z,29.2533,-90.6633,1.0,1.4,153.0,1.6,'1111122,1111122,1111122' 
LUMCON,ioos:station:LUMCON:101:1,2019-04-03T03:00:00Z,29.2533,-90.6633,1.0,1.3,146.0,1.5,'1111122,1111122,1111122' 
LUMCON,ioos:station:LUMCON:101:1,2019-04-03T03:15:00Z,29.2533,-90.6633,1.0,1.8,155.0,2.0,'1111122,1111122,1111122' 
LUMCON,ioos:station:LUMCON:101:1,2019-04-03T03:30:00Z,29.2533,-90.6633,1.0,2.2,149.0,2.3,'1111122,1111122,1111122' 
LUMCON,ioos:station:LUMCON:101:1,2019-04-03T03:45:00Z,29.2533,-90.6633,1.0,2.3,150.0,2.4,'1111122,1111122,1111122' 
LUMCON,ioos:station:LUMCON:101:1,2019-04-03T04:00:00Z,29.2533,-90.6633,1.0,2.0,149.0,2.1,'1111122,1111122,1111122' 
LUMCON,ioos:station:LUMCON:101:1,2019-04-03T04:15:00Z,29.2533,-90.6633,1.0,1.4,133.0,1.5,'1111122,1111122,1111122' 
LUMCON,ioos:station:LUMCON:101:1,2019-04-03T04:30:00Z,29.2533,-90.6633,1.0,2.4,159.0,2.6,'1111122,1111122,1111122' 
LUMCON,ioos:station:LUMCON:101:1,2019-04-03T04:45:00Z,29.2533,-90.6633,1.0,2.2,155.0,2.4,'1111122,1111122,1111122' 
LUMCON,ioos:station:LUMCON:101:1,2019-04-03T05:00:00Z,29.2533,-90.6633,1.0,2.7,153.0,3.0,'1111122,1111122,1111122' 
LUMCON,ioos:station:LUMCON:101:1,2019-04-03T05:15:00Z,29.2533,-90.6633,1.0,2.8,149.0,2.9,'1111122,1111122,1111122' 
LUMCON,ioos:station:LUMCON:101:1,2019-04-03T05:30:00Z,29.2533,-90.6633,1.0,2.8,159.0,3.1,'1111122,1111122,1111122' 
LUMCON,ioos:station:LUMCON:101:1,2019-04-03T05:45:00Z,29.2533,-90.6633,1.0,2.7,153.0,2.8,'1111122,1111122,1111122' 
LUMCON,ioos:station:LUMCON:101:1,2019-04-03T06:00:00Z,29.2533,-90.6633,1.0,2.0,161.0,2.1,'1111122,1111122,1111122' 
LUMCON,ioos:station:LUMCON:101:1,2019-04-03T06:15:00Z,29.2533,-90.6633,1.0,1.7,153.0,1.8,'1111122,1111122,1111122' 
LUMCON,ioos:station:LUMCON:101:1,2019-04-03T06:30:00Z,29.2533,-90.6633,1.0,0.9,142.0,0.9,'1111122,1111122,1111122' 
LUMCON,ioos:station:LUMCON:101:1,2019-04-03T06:45:00Z,29.2533,-90.6633,1.0,1.2,160.0,1.3,'1111122,1111122,1111122' 
LUMCON,ioos:station:LUMCON:101:1,2019-04-03T07:00:00Z,29.2533,-90.6633,1.0,1.5,177.0,1.5,'1111122,1111122,1111122' 
LUMCON,ioos:station:LUMCON:101:1,2019-04-03T07:15:00Z,29.2533,-90.6633,1.0,0.9,182.0,1.0,'1111122,1111122,1111122' 
LUMCON,ioos:station:LUMCON:101:1,2019-04-03T07:30:00Z,29.2533,-90.6633,1.0,1.1,191.0,1.1,'1111122,1111122,1111122' 
LUMCON,ioos:station:LUMCON:101:1,2019-04-03T07:45:00Z,29.2533,-90.6633,1.0,0.9,223.0,1.0,'1111122,1111122,1111122' 
LUMCON,ioos:station:LUMCON:101:1,2019-04-03T13:30:00Z,29.2533,-90.6633,1.0,3.5,0.0,3.9,'1111122,1114422,1111122' 
LUMCON,ioos:station:LUMCON:101:1,2019-04-03T13:45:00Z,29.2533,-90.6633,1.0,3.2,4.0,3.6,'1111122,1111122,1111122' 
LUMCON,ioos:station:LUMCON:101:1,2019-04-03T14:00:00Z,29.2533,-90.6633,1.0,4.9,15.0,5.4,'1111122,1111122,1111122' 
LUMCON,ioos:station:LUMCON:101:1,2019-04-03T14:15:00Z,29.2533,-90.6633,1.0,5.1,8.0,6.0,'1111122,1111122,1111122' 
LUMCON,ioos:station:LUMCON:101:1,2019-04-03T14:30:00Z,29.2533,-90.6633,1.0,4.0,9.0,4.3,'1111122,1111122,1111122' 
LUMCON,ioos:station:LUMCON:101:1,2019-04-03T14:45:00Z,29.2533,-90.6633,1.0,5.5,28.0,5.8,'1111122,1111122,1111122' 
LUMCON,ioos:station:LUMCON:101:1,2019-04-03T15:00:00Z,29.2533,-90.6633,1.0,5.8,27.0,6.2,'1111122,1111122,1111122' 
LUMCON,ioos:station:LUMCON:101:1,2019-04-03T15:15:00Z,29.2533,-90.6633,1.0,6.6,33.0,7.0,'1111122,1111122,1111122' 
LUMCON,ioos:station:LUMCON:101:1,2019-04-03T15:30:00Z,29.2533,-90.6633,1.0,7.4,18.0,7.9,'1111122,1111122,1111122' 
LUMCON,ioos:station:LUMCON:101:1,2019-04-03T15:45:00Z,29.2533,-90.6633,1.0,4.6,35.0,5.3,'1111122,1111122,1111122' 
LUMCON,ioos:station:LUMCON:101:1,2019-04-03T16:00:00Z,29.2533,-90.6633,1.0,6.8,55.0,7.6,'1111122,1111122,1111122' 
LUMCON,ioos:station:LUMCON:101:1,2019-04-03T16:15:00Z,29.2533,-90.6633,1.0,2.8,57.0,3.1,'1111122,1111122,1111122' 
LUMCON,ioos:station:LUMCON:101:1,2019-04-03T16:30:00Z,29.2533,-90.6633,1.0,4.7,48.0,5.2,'1111122,1111122,1111122' 
LUMCON,ioos:station:LUMCON:101:1,2019-04-03T16:45:00Z,29.2533,-90.6633,1.0,7.4,62.0,8.0,'1111122,1111122,1111122' 
LUMCON,ioos:station:LUMCON:101:1,2019-04-03T17:00:00Z,29.2533,-90.6633,1.0,8.6,62.0,9.8,'1111122,1111122,1111122' 
LUMCON,ioos:station:LUMCON:101:1,2019-04-03T17:15:00Z,29.2533,-90.6633,1.0,5.0,60.0,6.1,'1111122,1111122,1111122' 
LUMCON,ioos:station:LUMCON:101:1,2019-04-03T17:30:00Z,29.2533,-90.6633,1.0,8.4,57.0,9.6,'1111122,1111122,1111122' 
LUMCON,ioos:station:LUMCON:101:1,2019-04-03T17:45:00Z,29.2533,-90.6633,1.0,6.1,54.0,6.3,'1111122,1111122,1111122' 
LUMCON,ioos:station:LUMCON:101:1,2019-04-03T18:00:00Z,29.2533,-90.6633,1.0,6.5,62.0,7.4,'1111122,1111122,1111122' 